Weather History for Peoria, IL

Change the Weather History Date:

Sunday, December 9, 2012

  Actual Average Record
Temperature  
Mean Temperature 38 °F 30 °F  
Max Temperature 44 °F 38 °F 67 °F (1918)
Min Temperature 31 °F 23 °F -10 °F (1958)
Degree Days  
Heating Degree Days 27 35  
Month to date heating degree days 170 298  
Since 1 July heating degree days 1404 1446  
Cooling Degree Days 0 0  
Month to date cooling degree days 0 0  
Year to date cooling degree days 1374 1039  
Moisture  
Dew Point 36 °F    
Average Humidity 90    
Maximum Humidity 100    
Minimum Humidity 79    
Precipitation  
Precipitation 0.07 in 0.09 in 0.53 in (1997)
Month to date precipitation 0.31 0.82  
Year to date precipitation 25.41 34.89  
Snow  
Snow 0.00 in 0.20 in 5.70 in (1997)
Month to date snowfall 0.0 1.7  
Since 1 July snowfall 0.0 2.8  
Snow Depth 0.00 in    
Sea Level Pressure  
Sea Level Pressure 29.85 in    
Wind  
Wind Speed 9 mph (SE)    
Max Wind Speed 18 mph    
Max Gust Speed 24 mph    
Visibility 6 miles    
Events Rain    
T = Trace of Precipitation, MM = Missing Value Source: NWS Daily Summary

Daily Weather History Graph

Daily Weather History Graph

Search for Another Location

Airport:

Trip Planner

Search our weather history database for the weather conditions in past years. The results will help you decide how hot, cold, wet, or windy it might be!

Date:

Astronomy

Dec. 09, 2012 Rise Set
Actual Time 7:11 AM CST 4:31 PM CST
Civil Twilight 6:40 AM CST 5:02 PM CST
Nautical Twilight 6:06 AM CST 5:36 PM CST
Astronomical Twilight 5:32 AM CST 6:09 PM CST
Moon 2:43 AM CST (12/9) 1:39 PM CST (12/9)
Length of Visible Light 10h 21m
Length of Day
9h 20m
Waning Crescent, 18% of the Moon is Illuminated
Dec 9
Waning Crescent
Dec 13
New
Dec 19
First Quarter
Dec 28
Full
Jan 4
Last Quarter

Hourly Weather History & Observations

Time (CST) Temp. Windchill Dew Point Humidity Pressure Visibility Wind Dir Wind Speed Gust Speed Precip Events Conditions
12:54 AM 37.9 °F 31.5 °F 33.1 °F 83% 30.03 in 10.0 mi East 9.2 mph - N/A   Overcast
1:18 AM 37.4 °F 30.8 °F 33.8 °F 87% 30.00 in 10.0 mi East 9.2 mph - N/A   Overcast
1:30 AM 37.4 °F 29.3 °F 33.8 °F 87% 30.00 in 10.0 mi East 12.7 mph - N/A   Overcast
1:54 AM 37.9 °F 30.9 °F 33.1 °F 83% 30.01 in 10.0 mi ESE 10.4 mph - N/A   Overcast
2:54 AM 37.0 °F 28.9 °F 34.0 °F 89% 29.97 in 9.0 mi East 12.7 mph - 0.00 in   Overcast
3:25 AM 37.4 °F 32.1 °F 33.8 °F 87% 29.94 in 5.0 mi East 6.9 mph - 0.00 in Rain Light Rain
3:47 AM 37.4 °F 30.3 °F 35.6 °F 93% 29.93 in 4.0 mi East 10.4 mph - 0.03 in Rain Light Rain
3:54 AM 37.0 °F 31.6 °F 35.1 °F 93% 29.95 in 5.0 mi East 6.9 mph - 0.03 in Rain Light Rain
4:54 AM 37.0 °F 29.8 °F 35.1 °F 93% 29.93 in 5.0 mi East 10.4 mph - 0.00 in   Overcast
5:41 AM 37.4 °F 29.8 °F 35.6 °F 93% 29.89 in 2.5 mi East 11.5 mph 19.6 mph N/A   Overcast
5:54 AM 37.9 °F 30.5 °F 36.0 °F 93% 29.90 in 2.5 mi East 11.5 mph - 0.00 in Rain Light Rain
6:47 AM 37.4 °F 28.9 °F 35.6 °F 93% 29.87 in 3.0 mi East 13.8 mph - 0.01 in Rain Light Rain
6:54 AM 37.9 °F 29.2 °F 36.0 °F 93% 29.88 in 3.0 mi East 15.0 mph - 0.01 in Rain Light Rain
7:54 AM 39.0 °F 32.3 °F 37.0 °F 93% 29.87 in 4.0 mi East 10.4 mph - 0.01 in Rain Light Rain
8:06 AM 39.2 °F 32.0 °F 37.4 °F 93% 29.85 in 2.5 mi East 11.5 mph - 0.00 in   Overcast
8:24 AM 39.2 °F 32.5 °F 37.4 °F 93% 29.84 in 1.8 mi East 10.4 mph - 0.00 in   Overcast
8:46 AM 39.2 °F 33.6 °F 37.4 °F 93% 29.84 in 2.0 mi ESE 8.1 mph - 0.00 in   Overcast
8:54 AM 39.0 °F 34.8 °F 37.9 °F 96% 29.86 in 2.0 mi ESE 5.8 mph - 0.00 in   Overcast
9:01 AM 39.2 °F 35.0 °F 37.4 °F 93% 29.84 in 1.5 mi ESE 5.8 mph - N/A   Overcast
9:08 AM 39.2 °F 35.9 °F 37.4 °F 93% 29.85 in 1.0 mi ESE 4.6 mph - N/A   Overcast
9:37 AM 39.2 °F 35.0 °F 39.2 °F 100% 29.84 in 1.5 mi East 5.8 mph - N/A   Overcast
9:54 AM 39.9 °F 37.8 °F 39.0 °F 97% 29.86 in 1.2 mi SE 3.5 mph - 0.01 in   Overcast
10:41 AM 41.0 °F 39.0 °F 39.2 °F 93% 29.84 in 1.5 mi SSE 3.5 mph - N/A   Overcast
10:48 AM 41.0 °F 39.0 °F 39.2 °F 93% 29.83 in 1.2 mi SE 3.5 mph - 0.01 in   Overcast
10:54 AM 41.0 °F 39.0 °F 39.9 °F 96% 29.83 in 1.0 mi SE 3.5 mph - 0.01 in   Overcast
11:54 AM 42.1 °F - 41.0 °F 96% 29.80 in 1.0 mi Calm Calm - N/A   Overcast
12:32 PM 42.8 °F 39.3 °F 41.0 °F 93% 29.78 in 0.8 mi SW 5.8 mph - N/A   Overcast
12:54 PM 42.1 °F 37.7 °F 42.1 °F 100% 29.80 in 0.8 mi WSW 6.9 mph - N/A   Overcast
1:07 PM 42.8 °F 38.0 °F 41.0 °F 93% 29.78 in 1.0 mi WSW 8.1 mph - N/A   Overcast
1:19 PM 42.8 °F 38.6 °F 42.8 °F 100% 29.77 in 1.8 mi SW 6.9 mph - N/A   Overcast
1:26 PM 42.8 °F 37.5 °F 42.8 °F 100% 29.78 in 2.5 mi SW 9.2 mph - N/A   Overcast
1:44 PM 42.8 °F 38.0 °F 42.8 °F 100% 29.77 in 4.0 mi SW 8.1 mph - N/A   Overcast
1:54 PM 43.0 °F 38.8 °F 42.1 °F 97% 29.78 in 6.0 mi WSW 6.9 mph - N/A   Overcast
2:08 PM 42.8 °F 38.0 °F 42.8 °F 100% 29.76 in 7.0 mi WSW 8.1 mph - N/A   Overcast
2:54 PM 43.0 °F 37.7 °F 39.9 °F 89% 29.78 in 9.0 mi West 9.2 mph - N/A   Overcast
3:54 PM 43.0 °F 37.7 °F 39.0 °F 86% 29.79 in 10.0 mi West 9.2 mph - N/A   Overcast
4:54 PM 41.0 °F 33.9 °F 37.9 °F 89% 29.81 in 10.0 mi WNW 12.7 mph - N/A   Overcast
5:54 PM 41.0 °F 33.1 °F 36.0 °F 82% 29.81 in 10.0 mi WNW 15.0 mph 20.7 mph N/A   Overcast
6:51 PM 39.2 °F 34.2 °F 35.6 °F 87% 29.80 in 10.0 mi West 6.9 mph - N/A   Overcast
6:54 PM 39.9 °F 35.1 °F 36.0 °F 86% 29.81 in 10.0 mi WNW 6.9 mph - N/A   Overcast
7:54 PM 39.9 °F 33.9 °F 35.1 °F 83% 29.83 in 10.0 mi WNW 9.2 mph 20.7 mph N/A   Overcast
8:54 PM 39.9 °F 33.9 °F 34.0 °F 79% 29.82 in 10.0 mi WNW 9.2 mph 20.7 mph N/A   Overcast
9:54 PM 37.9 °F 30.0 °F 33.1 °F 83% 29.82 in 10.0 mi WNW 12.7 mph 21.9 mph N/A   Overcast
10:01 PM 37.4 °F 28.9 °F 33.8 °F 87% 29.81 in 10.0 mi WNW 13.8 mph 19.6 mph N/A   Overcast
10:40 PM 33.8 °F 24.8 °F 28.4 °F 81% 29.83 in 10.0 mi WNW 12.7 mph 24.2 mph N/A   Overcast
10:54 PM 34.0 °F 26.0 °F 28.9 °F 82% 29.85 in 10.0 mi WNW 10.4 mph 21.9 mph N/A   Overcast
11:10 PM 33.8 °F 25.3 °F 28.4 °F 81% 29.83 in 10.0 mi WNW 11.5 mph 23.0 mph N/A   Overcast
11:54 PM 30.9 °F 21.7 °F 26.1 °F 82% 29.85 in 10.0 mi NW 11.5 mph 20.7 mph N/A   Overcast